Theta_e
339 334 334 335 335 328 321 322 324 327 330 333 333 333 333 333 334 334 335 335 333 333 333 332 333 334 334 334 334 334 335 335 334 333 332 333 334 334 333 333 333 333 334 334 334 334 334 335 336 335 335 336 336 337 336 336 335 334 333 332 330 329 330 330 330 331 332 333 332 331 331 331 332 332 331 331 331 331 331 331 332 332 332 332 332
339 334 334 335 335 327 321 321 320 323 330 333 332 333 333 333 335 335 335 333 333 333 333 332 333 333 333 334 334 334 334 333 333 332 332 332 332 332 332 332 333 333 333 333 333 333 333 334 334 334 335 335 335 336 335 333 331 331 330 329 329 330 330 330 330 331 331 333 334 334 334 334 333 333 332 332 331 331 331 331 330 331 331 330 330
338 334 334 336 335 326 319 319 319 321 326 332 331 332 333 333 334 335 334 332 332 333 333 333 333 333 333 335 335 334 334 333 332 332 332 331 331 330 331 332 332 332 332 332 332 332 332 332 332 332 333 334 334 333 332 331 330 330 330 331 331 332 332 332 332 332 332 332 333 334 334 334 334 334 333 332 332 331 331 331 331 330 330 330 329
338 334 335 336 334 325 319 319 319 319 324 331 332 332 334 335 335 334 333 331 332 333 332 332 332 332 333 334 334 335 334 334 334 334 333 333 331 330 331 332 332 332 332 332 332 331 331 330 330 331 331 332 332 331 329 329 330 330 331 331 331 332 332 332 333 333 333 333 332 332 333 334 334 334 333 331 331 331 331 332 331 330 330 329 329
338 334 335 337 332 324 320 319 318 320 325 330 332 333 335 335 336 335 333 331 332 333 332 331 330 331 332 333 335 335 334 333 333 334 335 334 332 332 333 332 331 331 332 332 331 331 330 330 330 329 329 330 331 330 328 329 330 330 331 331 332 332 332 332 333 333 333 332 332 332 333 333 333 333 332 331 331 331 331 331 330 330 330 329 329
338 335 337 337 331 324 321 320 318 320 326 331 332 333 334 335 335 334 334 333 333 332 332 331 331 332 332 333 334 335 334 333 333 333 333 333 333 333 332 331 331 332 332 332 331 331 331 330 330 330 329 329 329 329 328 328 329 329 331 331 332 332 332 332 333 333 333 332 332 332 332 332 331 332 331 330 331 331 330 330 329 329 329 328 327
338 338 340 337 331 325 322 320 318 318 324 331 333 333 334 335 334 333 334 335 334 332 332 332 331 331 331 332 332 333 333 333 333 332 331 331 331 330 329 330 330 331 331 331 331 331 330 330 330 330 329 329 328 329 328 327 327 329 330 331 332 332 332 332 332 332 332 332 331 331 331 331 331 332 331 331 332 331 330 329 329 328 327 326 326
339 339 340 338 331 326 323 320 319 316 318 326 332 333 333 335 335 334 333 335 335 333 332 332 332 330 330 332 332 332 331 332 332 331 330 329 329 329 329 330 330 330 330 330 330 330 330 330 330 330 330 329 328 328 327 327 328 329 330 330 331 331 331 331 331 331 331 331 331 330 331 331 330 331 331 330 331 329 328 328 328 327 327 325 325
339 339 340 337 331 328 324 321 320 317 316 322 329 331 333 335 334 333 334 334 335 334 332 331 331 330 330 332 331 331 331 332 332 331 330 330 330 331 332 331 330 330 330 331 331 331 331 330 330 330 330 330 328 328 327 328 329 329 329 329 329 330 330 331 331 331 331 331 331 330 330 330 330 330 330 328 328 327 327 327 326 326 326 326 324
338 339 340 336 332 330 326 322 321 318 316 320 327 331 333 334 333 332 333 335 335 334 333 332 331 330 330 330 330 331 332 332 331 331 331 331 331 332 332 332 332 331 331 331 332 331 330 330 330 329 329 330 329 327 327 328 328 328 329 329 329 330 330 330 330 330 330 330 330 330 329 329 329 329 329 327 327 326 326 326 326 325 324 324 324
338 340 340 335 332 331 326 323 322 319 317 318 326 330 331 334 333 332 333 334 334 333 333 332 332 330 329 329 329 330 332 332 331 331 331 330 330 331 331 331 331 331 331 331 331 330 330 329 329 329 328 329 328 327 327 327 327 328 328 329 330 330 330 329 329 330 330 329 329 329 329 328 328 328 328 328 327 326 325 326 326 325 324 323 323
339 341 339 335 333 332 328 325 324 321 317 318 323 327 330 333 334 333 333 333 333 331 331 332 331 330 329 329 329 329 331 332 331 331 330 330 330 331 331 331 331 330 330 330 330 330 330 329 329 329 328 328 327 327 327 326 326 327 328 329 330 329 330 329 329 329 329 328 328 328 328 328 328 328 327 326 326 325 325 325 325 324 323 323 322
340 341 338 334 334 333 329 327 326 322 319 318 319 325 330 333 334 334 333 333 333 330 330 330 330 329 328 329 329 329 329 330 329 329 329 330 330 331 331 331 330 330 330 329 330 329 329 329 329 328 328 327 326 326 326 326 326 328 328 329 329 329 329 329 329 328 327 327 327 327 327 327 327 327 326 325 325 324 324 324 323 322 322 322 321
340 341 338 334 335 334 331 329 327 323 321 319 318 321 327 332 332 332 332 332 333 331 330 329 329 329 328 328 328 328 328 328 328 328 329 330 331 331 330 330 330 329 329 329 329 329 329 329 328 328 327 326 326 326 326 326 327 327 328 329 329 329 329 328 328 328 327 327 326 326 326 326 326 325 325 324 324 323 323 322 322 321 320 320 320
340 341 338 334 335 334 332 330 328 325 323 320 319 317 321 327 329 330 332 330 330 332 330 327 328 329 328 328 328 328 328 328 328 328 329 330 330 330 329 329 329 329 329 329 328 328 329 328 328 327 326 326 326 326 326 326 327 327 328 328 328 328 328 328 328 327 327 326 325 324 324 324 324 324 324 323 323 323 322 321 320 319 319 318 318
339 340 339 336 334 335 334 332 330 328 325 323 321 318 317 321 326 329 331 329 329 331 331 328 327 328 328 328 327 327 327 328 328 328 329 329 329 329 328 328 328 329 329 328 328 328 328 328 327 326 325 326 326 326 326 327 327 326 326 326 327 327 327 327 327 326 326 325 324 323 323 324 324 323 323 322 322 321 320 319 319 319 318 317 318
339 340 340 337 335 335 335 334 333 331 328 325 323 321 318 317 322 326 329 329 329 329 330 329 327 327 327 327 327 327 327 326 326 327 328 328 328 328 328 329 329 329 329 328 328 327 327 327 327 325 325 326 326 326 326 326 326 326 325 324 325 325 325 325 325 325 325 324 324 322 322 322 323 322 322 321 321 320 319 318 318 318 318 316 317
339 339 340 339 338 336 336 335 334 333 331 328 326 324 321 318 319 323 325 326 327 327 327 327 327 326 326 326 327 327 326 326 325 326 327 327 328 328 328 328 328 328 327 327 327 327 326 327 326 325 326 326 326 326 326 325 325 325 323 323 324 324 324 324 324 324 323 323 322 320 320 321 321 321 321 320 319 318 318 318 318 317 317 316 316
338 339 339 339 339 338 337 336 335 334 332 331 328 326 324 320 318 319 321 321 323 323 323 324 326 325 324 325 326 326 326 326 325 325 326 327 327 328 328 327 326 326 326 326 326 326 326 326 325 325 326 326 326 326 326 325 324 323 322 323 324 323 323 323 323 323 323 322 321 318 319 320 320 320 320 319 318 318 318 318 317 316 317 316 314
338 338 338 339 339 339 339 337 335 335 334 333 330 328 327 324 321 319 319 319 320 320 320 321 323 323 321 322 325 326 326 326 324 324 325 326 327 328 328 327 325 325 326 326 325 325 325 325 324 324 325 325 326 325 325 325 324 322 322 324 323 323 323 323 323 322 322 320 318 319 320 320 320 320 319 318 318 318 319 318 317 317 316 315 314
338 338 338 338 338 339 340 339 338 337 337 336 334 331 328 327 324 322 319 318 319 318 318 319 321 322 320 319 323 325 324 324 324 323 324 324 326 327 327 327 325 324 324 325 324 323 324 323 322 322 323 324 325 325 324 324 323 321 322 324 323 323 323 323 322 321 320 318 318 319 319 319 319 319 318 318 318 318 318 317 317 316 315 316 316
337 337 337 338 338 339 339 339 339 339 338 338 337 333 330 328 326 325 322 319 318 318 318 318 319 319 321 323 324 325 323 324 326 323 324 323 324 326 327 327 325 323 323 323 322 322 322 321 320 321 322 323 324 324 323 323 322 321 323 324 323 323 323 323 322 320 319 318 318 320 318 318 319 319 318 317 317 317 318 317 316 315 314 316 315
337 337 337 338 338 338 339 339 339 339 339 338 339 336 332 330 329 327 325 323 318 318 320 319 320 318 322 328 328 327 325 327 327 322 323 322 323 325 325 325 324 322 321 321 320 319 319 318 319 321 323 325 324 324 323 322 321 322 323 323 323 323 323 323 322 320 320 319 319 319 319 320 320 319 318 316 316 317 317 315 314 315 315 315 314
337 337 337 338 338 338 338 339 339 339 339 338 338 337 334 332 332 330 328 327 320 320 325 324 326 323 323 330 328 327 327 328 327 323 324 323 322 324 323 323 322 321 321 320 318 318 318 318 318 321 324 325 325 324 323 323 322 322 323 323 323 322 323 323 322 321 320 320 320 319 319 320 320 318 318 317 316 317 317 314 314 316 314 313 313
336 337 337 337 337 338 338 338 338 339 339 338 338 337 336 335 334 333 331 330 325 325 330 328 330 328 325 329 329 327 327 328 327 324 325 324 320 322 322 322 320 320 320 319 318 318 318 317 319 322 323 323 324 324 323 324 323 323 323 323 323 323 323 323 323 322 321 320 320 319 319 319 319 318 318 317 316 317 316 314 315 315 313 312 313
335 336 336 337 337 338 338 337 338 338 339 338 338 337 337 336 335 335 332 332 330 329 331 329 330 330 326 329 330 327 326 328 325 319 324 325 322 322 321 322 322 320 321 322 319 317 319 318 319 323 323 322 323 323 323 323 323 323 323 323 322 323 323 323 323 322 321 320 320 319 319 318 318 318 318 317 316 316 316 314 314 314 313 312 313
335 335 336 337 336 337 337 337 337 337 338 337 338 337 337 337 335 336 333 332 332 330 331 330 330 330 327 328 330 327 324 328 323 316 323 327 325 324 323 324 324 322 321 324 322 318 319 320 319 322 323 322 322 321 321 323 323 323 323 323 322 322 323 322 323 323 322 321 320 319 318 318 318 318 318 317 316 315 315 314 314 314 313 312 312
335 334 335 336 335 336 337 337 337 337 337 337 337 337 336 337 336 336 335 333 332 331 331 331 330 330 328 328 330 327 325 328 325 321 325 328 326 325 325 325 325 323 321 324 324 319 318 321 322 322 321 319 318 317 318 320 321 322 322 322 322 322 323 322 323 323 322 322 320 319 318 318 318 318 318 317 316 315 315 314 314 314 313 313 312
335 335 334 335 335 336 336 337 337 337 336 336 336 336 335 335 336 336 335 334 333 331 331 331 330 330 329 328 329 327 327 328 327 325 326 327 326 326 326 326 325 323 321 323 324 319 316 321 322 320 318 317 316 315 316 317 319 321 322 322 322 322 322 322 322 323 322 321 320 319 318 317 317 317 317 317 317 316 315 314 314 314 314 313 312
336 336 335 335 335 335 336 336 337 337 336 336 335 336 336 335 336 336 335 334 333 332 331 331 331 330 329 329 328 328 328 328 328 327 326 325 326 325 325 325 325 324 322 322 322 318 315 319 320 318 318 318 317 316 315 316 318 321 322 322 322 322 322 322 322 322 322 321 321 319 318 317 317 317 316 316 317 316 316 315 314 314 314 313 313
336 336 335 335 335 335 336 336 336 337 336 336 335 335 336 335 335 335 335 335 333 332 331 331 331 330 329 329 329 328 328 328 328 328 327 326 325 325 324 325 324 324 323 321 320 318 315 318 319 319 319 319 318 318 317 316 317 320 321 321 322 322 322 322 322 322 322 322 321 320 319 318 317 317 316 316 316 317 316 316 315 314 314 313 313
336 336 336 335 335 335 335 336 337 337 336 336 336 336 336 336 335 335 335 335 333 332 331 331 331 330 329 329 329 328 328 328 328 328 328 326 326 325 324 323 323 323 322 320 318 316 316 319 319 319 319 319 319 319 318 317 319 320 320 320 320 321 321 321 321 321 322 321 321 320 320 319 318 317 316 316 316 316 317 316 316 315 314 313 313
336 336 336 335 335 335 335 336 336 336 336 336 336 336 335 336 335 335 335 335 334 333 331 331 331 331 329 330 329 329 328 328 328 328 328 327 327 326 325 324 323 322 321 319 318 315 315 317 318 317 317 318 319 320 319 316 317 320 320 319 320 320 321 321 321 321 321 321 321 321 320 319 318 317 317 316 316 316 316 316 316 316 315 314 314
335 335 336 335 335 335 335 335 335 336 336 335 335 335 335 335 336 335 335 335 335 334 333 331 331 331 329 329 329 329 328 328 328 328 328 328 327 327 326 325 324 322 321 320 319 317 314 313 314 314 314 315 316 317 318 317 315 317 319 320 320 319 320 320 320 320 321 321 321 320 320 319 318 318 317 316 316 315 315 316 316 315 316 315 314
335 335 336 336 335 335 334 334 334 335 336 335 335 335 334 334 335 335 334 335 335 335 334 332 331 331 330 330 329 329 328 327 328 328 328 328 327 326 326 326 325 324 322 322 321 320 317 313 311 312 312 312 312 315 317 317 316 316 318 319 319 319 319 320 320 320 320 320 320 320 320 319 318 318 317 316 316 315 315 315 315 315 315 315 314
335 335 335 335 335 335 334 334 334 334 335 335 335 335 335 334 333 334 334 335 335 335 334 333 332 331 331 331 330 330 329 328 327 327 327 328 327 326 326 326 327 325 324 324 323 322 321 317 313 312 313 313 313 315 316 317 317 316 317 318 318 318 318 318 319 319 319 320 320 320 320 319 319 318 318 317 316 316 315 315 315 315 315 315 315
335 335 336 336 336 335 335 334 334 334 335 335 335 334 335 334 334 333 333 333 334 335 334 334 333 332 331 331 331 330 330 328 327 327 327 327 327 327 326 326 326 327 326 325 324 324 322 320 317 315 315 315 316 316 316 317 317 317 317 318 318 317 317 317 317 318 318 319 319 320 320 320 319 319 318 318 317 316 316 315 315 314 314 315 315
335 335 336 336 336 336 335 335 334 334 334 334 334 333 333 334 334 333 333 332 333 333 334 334 334 333 332 331 331 330 330 329 329 328 328 328 327 327 327 327 326 327 327 325 324 323 323 322 320 318 316 315 316 317 317 317 317 316 317 317 317 316 315 315 315 316 317 318 319 319 320 320 320 319 318 318 318 317 317 316 315 314 313 313 314
335 336 336 336 336 336 336 335 334 334 333 333 333 333 333 332 333 333 333 332 332 332 332 332 333 333 333 332 332 331 331 330 330 329 329 328 328 327 327 327 327 327 327 326 324 323 322 322 321 319 317 316 316 317 317 317 317 316 316 316 316 315 314 314 313 314 315 316 317 318 319 319 320 320 320 319 318 317 317 316 316 315 314 313 313
335 336 336 336 335 335 336 335 334 335 334 333 333 333 333 332 332 332 332 333 333 332 332 332 332 332 333 333 332 332 332 331 330 330 329 328 328 328 328 327 327 327 326 326 325 324 323 323 322 319 318 317 316 316 317 317 317 316 316 315 315 314 313 312 312 312 313 314 315 317 318 318 319 319 320 320 319 318 317 316 316 315 315 314 313
334 335 336 335 335 335 335 335 334 334 334 333 333 333 333 332 332 332 332 332 332 332 332 332 332 332 332 333 332 332 332 331 331 330 329 327 327 328 328 328 327 327 327 327 326 325 323 323 322 320 318 318 317 317 316 316 315 314 314 314 313 313 313 313 313 313 313 313 313 314 316 317 318 319 319 319 319 318 317 317 316 315 315 314 313
333 333 334 334 334 334 334 335 334 333 334 333 333 333 332 332 332 331 331 331 331 332 332 332 332 331 331 332 332 332 332 331 330 330 330 329 328 327 327 327 327 327 327 327 326 324 323 322 321 320 319 318 318 317 317 315 314 313 312 312 313 314 315 315 315 316 315 315 314 314 314 315 316 317 318 318 318 318 318 318 317 316 316 315 314
330 331 332 332 333 333 333 334 334 333 333 333 333 332 332 332 332 331 331 332 331 331 331 331 331 331 331 332 332 332 332 331 330 329 329 329 329 328 327 327 328 328 328 327 326 324 323 322 321 321 320 318 317 317 317 316 314 312 312 312 313 315 316 315 315 317 317 316 316 315 315 315 315 316 316 317 317 317 318 318 318 317 317 315 314
329 329 330 331 331 332 332 333 333 333 332 332 332 332 332 332 332 332 331 331 331 331 331 331 331 331 331 331 331 331 330 330 330 329 329 329 329 329 328 328 328 328 328 327 326 325 324 323 322 321 320 318 317 317 317 316 314 313 313 314 312 313 317 316 315 316 316 316 316 316 316 315 315 315 315 316 316 316 317 317 317 317 317 316 315
328 328 328 329 330 331 332 332 332 332 332 331 331 331 332 332 332 332 331 331 330 330 331 332 332 332 331 331 330 330 329 329 330 329 330 330 330 330 329 329 329 329 328 327 326 325 324 323 322 321 320 319 319 318 317 316 315 315 314 315 314 316 318 315 314 315 315 316 315 315 315 315 315 315 315 315 315 315 315 315 316 316 317 317 316
321 323 325 327 328 329 330 331 332 332 331 331 331 330 331 331 331 331 330 330 330 329 329 330 330 331 331 331 331 330 330 331 332 332 332 332 331 330 329 328 328 328 327 326 326 326 324 323 322 321 321 321 320 318 317 316 316 315 314 314 316 319 317 314 315 316 315 314 315 314 314 313 314 314 314 314 314 314 314 314 314 314 315 316 316
314 317 322 325 326 327 328 329 330 331 331 331 330 330 331 331 331 330 329 329 329 329 328 328 328 328 328 329 329 328 329 329 330 331 331 330 330 329 326 325 327 328 328 327 327 326 325 324 323 322 323 322 320 317 317 316 314 313 313 313 313 315 315 314 314 315 315 314 313 313 313 312 312 312 312 312 313 313 313 313 313 313 313 314 315
312 313 317 321 324 325 326 327 329 330 330 330 330 330 330 330 329 329 328 328 327 327 327 327 327 327 326 326 327 327 327 328 328 328 328 328 328 328 327 327 328 328 328 328 327 326 326 325 324 323 323 322 320 317 317 317 315 314 314 313 312 313 313 312 312 312 312 312 312 312 312 311 311 311 311 311 312 312 312 313 313 313 313 313 313
312 312 313 316 319 321 323 325 327 328 329 329 329 329 329 328 328 327 327 327 327 326 326 326 326 326 326 325 326 326 326 326 327 327 327 328 328 329 329 329 329 328 328 327 326 325 324 324 323 322 322 321 320 318 318 317 317 315 314 313 312 312 311 311 310 309 309 310 311 310 311 311 310 311 311 311 311 311 311 312 312 312 312 312 312
312 311 311 312 313 315 317 320 323 324 325 326 327 327 327 326 325 325 325 326 326 325 325 325 325 325 325 325 325 325 325 325 325 325 325 325 326 327 327 328 328 327 327 325 324 324 323 323 323 322 322 321 320 319 318 318 317 317 316 314 312 311 310 309 309 309 308 308 309 309 309 309 309 310 311 311 311 311 311 311 311 311 311 311 311
311 310 310 309 310 312 314 317 320 321 322 324 325 325 324 324 323 324 325 325 325 324 324 323 324 324 324 324 324 323 323 323 323 323 322 322 322 323 324 325 326 326 326 325 325 325 324 324 324 323 322 321 320 320 319 318 318 316 315 314 313 312 311 311 310 310 308 308 308 308 309 309 309 309 310 311 311 311 311 311 310 310 310 310 311
Wind_Speed
14 14 14 13 12 10 10 11 12 13 14 15 14 14 14 15 11 9 11 14 17 18 18 18 18 18 19 19 18 18 19 19 21 21 20 20 20 21 20 21 21 21 22 21 21 20 20 20 19 19 19 20 20 20 21 23 25 27 27 28 28 27 26 25 25 25 25 25 25 24 24 23 23 23 23 23 23 24 24 25 25 25 25 24 23
15 14 14 13 12 10 10 11 12 13 14 14 14 14 14 13 11 11 14 16 18 19 18 18 18 18 18 18 17 17 18 19 20 20 20 19 20 21 20 20 20 21 21 21 21 21 21 20 20 19 19 19 20 21 22 25 27 27 28 28 28 28 27 26 25 25 24 25 25 24 24 23 23 23 24 24 24 24 24 24 24 25 25 24 24
15 15 14 13 12 10 11 11 12 13 15 16 15 16 15 13 11 13 17 18 18 19 18 18 18 18 18 17 16 18 19 20 20 20 20 20 19 20 20 21 21 21 21 21 21 21 21 21 20 19 19 19 20 21 23 25 26 27 27 27 26 25 25 25 25 25 22 22 23 24 24 23 23 23 24 25 24 24 24 24 24 25 24 24 24
15 16 14 13 12 11 11 11 11 13 16 16 15 16 16 13 12 15 18 18 19 19 18 17 18 18 18 17 17 19 19 20 19 18 19 19 18 19 20 20 21 21 21 21 22 22 21 21 21 20 20 19 19 22 24 24 25 26 26 26 25 24 23 23 23 23 21 19 21 23 24 24 23 23 23 25 24 24 24 24 24 25 24 23 23
16 15 15 14 13 12 11 11 11 12 14 15 14 15 15 12 13 16 18 19 19 18 17 17 18 17 17 17 17 18 19 19 18 17 19 19 18 19 20 20 20 20 21 21 21 21 21 21 21 21 20 19 19 20 22 24 24 26 25 25 24 23 23 22 21 21 20 19 21 23 23 23 23 22 23 23 23 23 23 23 23 24 24 23 23
15 15 14 13 13 12 11 11 11 12 14 15 14 14 14 12 12 14 17 19 18 18 18 17 18 17 17 17 17 17 18 18 18 18 19 19 19 20 20 20 20 20 21 21 21 21 21 21 20 20 20 20 19 18 21 23 23 24 24 24 24 23 21 20 20 19 19 20 21 23 22 22 23 22 22 23 22 22 22 22 22 22 23 23 23
15 16 12 12 14 12 11 11 11 12 14 16 14 14 14 12 12 13 16 18 18 18 18 17 16 16 16 16 16 17 18 18 18 18 18 17 18 19 19 19 19 20 20 20 20 20 20 20 19 19 19 19 19 19 19 21 21 22 23 24 23 22 20 19 20 20 20 21 22 22 22 21 22 22 21 22 22 21 22 22 21 21 22 23 23
16 16 12 12 13 12 12 12 12 12 13 15 15 15 15 12 12 14 15 18 18 17 17 16 15 15 16 16 15 16 17 17 16 16 17 18 19 19 18 18 18 19 19 19 19 19 19 19 19 19 19 19 19 19 20 21 22 23 23 23 22 21 21 20 20 21 22 22 22 21 21 20 20 20 19 20 20 20 21 20 21 22 22 22 21
16 16 12 12 14 13 12 12 12 11 13 15 15 15 15 12 11 13 14 18 19 16 16 15 15 15 15 15 15 16 15 15 14 14 17 19 19 17 17 17 18 18 18 18 18 18 18 17 18 17 18 18 18 20 22 22 23 23 23 22 21 21 21 21 19 20 21 21 20 20 20 20 21 20 18 18 18 19 20 20 19 20 20 20 19
16 16 12 13 14 13 12 12 12 11 13 15 16 16 16 13 10 12 13 16 17 15 15 15 15 15 15 15 15 15 14 15 15 15 18 18 17 17 17 17 18 18 18 18 17 17 17 16 17 16 17 17 17 20 21 22 22 22 21 21 20 19 19 21 20 19 20 20 20 19 19 19 21 20 18 18 18 18 20 21 19 17 17 18 19
16 15 12 14 14 12 13 12 11 11 13 15 16 16 15 13 10 12 13 15 16 14 14 15 15 15 15 15 15 15 14 15 17 17 18 17 16 16 16 17 18 18 17 17 17 16 16 16 16 16 16 16 17 18 19 19 19 20 20 20 18 17 17 18 19 19 19 20 21 20 19 19 19 18 17 17 17 17 17 18 18 17 17 17 17
16 15 13 15 14 12 13 12 12 11 12 14 14 14 15 14 10 11 12 13 14 14 14 15 15 15 14 14 14 15 15 16 17 16 16 16 16 15 15 16 17 17 16 16 16 16 16 16 15 15 15 15 16 17 17 17 17 19 19 19 18 17 17 18 19 20 20 20 20 19 18 17 18 16 16 15 15 17 17 16 17 17 17 16 16
16 13 13 16 14 12 12 11 11 11 12 13 13 13 14 15 12 10 11 12 12 12 14 15 14 14 14 14 14 14 14 14 15 15 15 15 15 15 15 15 15 15 15 15 15 15 15 15 14 14 14 15 17 17 16 16 18 19 19 20 20 19 19 19 19 19 19 18 18 17 17 17 16 15 15 15 15 16 16 16 16 16 16 15 15
15 12 14 16 14 12 12 11 11 11 11 11 12 12 12 14 14 12 10 10 11 11 13 14 14 14 14 14 14 14 14 14 14 15 15 15 14 14 14 14 14 14 14 14 14 14 14 13 13 13 13 15 16 16 15 16 18 18 18 19 18 18 17 18 17 17 17 16 16 16 16 16 15 13 14 15 15 15 16 16 16 16 16 16 15
13 13 13 14 14 12 12 11 10 10 10 10 10 10 11 12 13 13 10 8 9 11 12 13 14 14 14 13 13 13 13 13 14 15 14 13 13 13 13 13 13 14 14 14 14 13 13 12 12 13 14 15 16 15 15 16 16 17 17 17 17 16 16 17 16 15 15 15 15 16 16 15 14 14 14 14 15 15 15 15 15 15 15 15 15
13 13 11 12 14 12 11 11 10 10 9 9 9 9 10 10 12 12 10 7 8 9 10 11 14 14 13 12 11 12 12 12 13 15 13 12 13 12 12 12 13 13 13 13 13 13 12 12 12 13 14 14 15 14 14 14 14 15 15 15 15 14 14 14 14 15 15 14 13 14 14 14 14 15 15 15 15 15 15 15 14 14 15 15 14
13 13 10 10 12 12 11 10 10 9 9 9 9 9 9 10 11 11 9 8 8 8 9 10 13 13 13 11 11 11 11 11 12 12 12 11 11 11 12 12 13 13 13 13 12 12 12 12 12 13 13 14 13 13 12 12 13 13 14 14 14 13 13 11 12 13 13 11 10 11 13 13 14 14 14 14 15 14 14 14 13 13 13 13 13
13 12 11 10 10 11 10 10 10 9 9 9 9 8 8 9 9 9 8 8 8 8 8 9 10 11 11 10 9 9 9 9 9 10 9 10 10 10 11 11 11 12 12 12 12 11 11 11 11 12 13 13 12 11 11 11 12 12 13 14 14 13 12 11 11 11 10 8 8 11 13 13 13 14 14 14 13 13 13 13 12 12 11 11 12
12 11 11 11 10 10 10 10 10 9 9 9 9 8 8 8 8 8 7 6 6 6 6 7 8 8 8 8 8 7 7 7 7 8 9 9 9 8 8 8 8 10 11 11 11 10 10 10 10 11 12 11 10 10 9 9 10 11 12 13 13 12 11 9 9 8 7 7 8 11 12 12 13 13 13 13 13 12 12 12 11 11 11 11 11
12 11 11 11 11 11 10 9 10 8 8 7 8 8 8 8 7 7 6 5 5 4 4 5 6 6 6 6 7 6 6 6 6 8 8 8 7 6 6 6 6 8 10 10 9 9 9 9 10 11 11 10 9 8 8 8 9 10 12 12 12 11 9 6 6 7 6 6 8 12 13 12 12 12 11 12 12 10 10 10 10 10 10 10 11
13 12 11 12 12 12 11 10 10 9 8 7 7 9 8 8 7 7 7 6 5 4 3 4 4 5 5 6 7 6 5 4 4 7 6 6 6 6 5 5 5 6 8 8 8 9 9 9 10 11 10 9 7 7 7 7 8 10 11 11 10 9 8 6 6 7 7 7 11 12 10 10 10 11 11 10 10 9 9 10 10 10 10 10 11
14 14 13 13 12 12 11 11 12 11 11 9 7 8 9 8 8 7 7 7 6 5 4 4 3 4 6 7 7 4 4 4 3 5 5 5 6 6 5 4 4 4 6 8 8 8 8 9 10 11 11 9 8 7 6 6 8 9 9 10 9 7 6 7 7 6 7 8 13 11 8 9 9 10 9 8 9 8 9 10 9 9 10 10 10
16 15 15 14 13 13 12 11 12 12 13 12 8 8 10 9 8 7 7 7 7 7 5 4 3 4 7 8 7 3 3 5 5 4 5 5 7 7 4 3 2 3 3 6 7 7 8 9 10 12 11 9 8 8 7 7 8 8 9 8 6 4 5 6 6 6 5 5 9 10 8 7 7 7 7 7 9 8 7 8 8 8 9 8 8
18 17 16 15 15 14 14 13 12 12 13 12 10 8 9 8 6 7 7 7 7 7 5 4 3 3 7 9 5 5 5 8 7 5 6 5 6 7 5 3 3 3 2 2 5 6 7 7 9 11 10 7 5 4 6 7 7 7 8 7 3 2 3 5 5 4 2 2 6 8 7 5 5 5 6 7 8 7 6 7 7 7 8 7 7
18 18 17 18 16 15 15 15 14 13 13 12 10 8 9 9 7 6 5 6 6 7 6 5 5 4 6 8 5 9 7 7 8 8 7 5 6 7 6 5 3 3 3 2 5 6 6 6 7 9 7 5 4 2 3 4 4 5 6 4 2 2 2 2 4 3 2 2 3 6 6 3 2 4 5 5 7 6 4 6 6 5 6 6 6
18 19 18 18 18 16 16 16 15 15 14 13 11 9 11 12 10 9 7 7 6 7 8 8 7 8 5 7 7 9 8 7 8 9 8 6 4 5 5 3 3 3 4 2 3 5 5 5 6 7 4 2 6 6 4 2 1 2 1 1 1 2 1 2 3 4 5 4 3 6 5 1 3 4 4 4 6 3 2 5 5 4 6 5 5
19 20 19 18 19 18 17 17 16 16 16 14 13 12 13 13 12 12 10 10 10 8 10 9 8 9 8 8 9 9 9 7 7 8 9 7 6 4 3 4 5 5 5 4 5 5 5 4 4 4 3 5 6 6 7 7 5 3 2 3 3 3 2 4 4 4 6 7 5 5 4 2 4 4 4 4 5 4 3 4 3 3 5 4 4
19 20 20 19 20 19 18 18 17 18 17 16 15 13 13 13 13 14 12 12 12 10 11 10 9 10 9 10 9 7 9 8 7 7 10 10 8 7 5 7 9 7 5 7 8 7 6 5 4 4 6 6 5 5 5 7 7 7 5 4 5 6 4 4 5 6 7 8 7 6 5 4 7 6 5 4 4 4 2 3 3 3 3 2 4
21 20 20 19 20 20 19 18 19 19 18 17 17 14 13 14 14 15 15 14 13 12 12 11 11 11 10 10 10 8 9 9 9 8 10 11 9 10 9 10 10 9 7 8 9 8 6 7 7 8 7 6 6 5 5 6 6 6 5 6 7 8 7 6 6 7 8 8 8 8 7 6 9 8 6 5 6 5 4 4 4 4 3 2 4
22 20 20 20 20 21 21 20 20 19 18 17 18 17 15 15 15 16 15 16 15 12 12 12 12 12 11 11 12 11 10 9 10 9 10 11 11 11 12 11 10 10 10 9 10 9 7 8 9 8 7 7 7 7 6 6 5 6 6 7 8 9 10 9 8 8 8 9 9 9 9 9 10 9 7 6 7 7 7 6 4 6 5 3 5
20 21 22 21 21 22 22 21 21 20 20 19 19 19 17 16 16 16 15 16 16 14 13 14 14 13 12 12 12 13 12 10 11 10 11 11 12 12 12 12 11 11 12 11 11 10 8 9 9 9 8 9 8 8 8 7 7 8 8 10 10 10 11 11 11 10 10 10 10 11 11 11 12 10 8 7 8 9 10 9 8 8 7 6 7
19 21 22 21 21 23 23 23 22 21 21 21 20 19 18 18 17 16 17 16 16 15 16 15 15 15 14 13 13 13 14 13 12 11 11 11 12 13 13 13 12 13 13 11 11 11 9 10 10 10 10 9 9 10 11 9 9 10 11 12 11 11 11 11 11 12 13 12 12 13 13 14 14 13 11 10 11 12 11 11 11 12 9 8 9
21 21 21 22 22 22 22 23 23 23 24 23 21 20 19 18 18 18 17 17 17 17 17 16 16 16 15 15 14 14 15 15 14 12 12 12 12 12 13 13 13 13 13 12 12 12 11 12 13 13 12 12 11 12 13 12 11 12 12 12 13 13 12 13 13 13 14 13 13 15 16 16 17 16 15 14 14 14 13 13 13 14 12 10 10
22 21 22 23 23 22 22 23 24 24 25 24 22 21 21 20 19 19 17 16 17 17 17 18 17 16 16 17 18 17 16 16 15 13 15 15 13 13 13 12 13 14 14 14 14 14 13 14 15 15 14 14 14 14 14 14 13 13 13 14 15 14 14 16 16 16 16 15 16 17 17 17 18 18 17 17 16 16 16 16 16 17 16 14 13
23 22 23 24 24 24 24 24 24 25 25 24 22 21 21 21 20 19 18 17 17 17 17 18 19 18 17 18 20 19 17 17 17 15 16 17 16 15 14 13 13 14 14 15 15 15 14 15 16 16 16 16 17 16 15 15 15 13 14 16 16 15 16 17 18 19 19 19 20 20 19 19 19 19 19 20 20 19 19 18 18 19 17 17 16
24 23 24 24 24 24 25 25 25 26 25 23 22 20 19 20 20 19 19 18 18 18 16 17 19 20 20 20 20 20 19 18 19 18 16 17 17 16 15 15 15 15 15 16 17 16 16 16 17 18 17 16 17 17 16 16 15 13 14 16 17 17 18 18 20 21 21 21 22 22 22 22 22 21 21 22 22 22 22 21 21 21 20 19 19
25 24 24 25 25 25 25 25 25 26 25 24 22 21 20 19 19 19 19 20 20 19 18 18 18 19 21 22 22 21 20 19 19 19 18 17 19 19 18 18 18 18 18 19 19 19 18 17 18 19 19 17 17 16 16 16 16 14 15 18 19 20 20 20 21 22 23 24 24 24 25 25 25 25 24 24 25 25 24 24 24 25 24 23 22
25 25 24 26 26 25 25 25 24 25 26 25 22 21 21 20 19 19 19 20 21 20 19 20 20 20 20 22 24 24 24 23 21 21 21 21 21 22 20 20 21 21 21 22 22 21 20 20 20 20 20 18 17 15 15 17 16 16 18 20 21 22 22 22 23 23 24 25 26 26 26 27 28 29 29 28 27 27 26 26 27 27 28 27 26
25 24 24 25 26 25 25 25 23 23 24 24 23 22 22 21 20 19 19 19 20 21 21 22 22 21 21 21 22 23 22 23 22 20 20 21 23 25 23 22 22 22 21 22 22 23 22 21 21 21 20 19 18 16 15 16 17 18 20 22 23 24 24 24 24 25 26 27 27 28 28 29 29 31 32 33 32 31 29 28 29 29 31 31 30
25 25 24 24 26 25 25 26 24 22 23 23 23 23 23 22 21 20 20 20 20 20 21 22 21 21 22 22 21 21 21 21 21 19 19 20 22 25 25 24 23 23 22 22 24 25 24 23 22 21 20 19 19 18 18 18 18 19 21 23 24 25 26 27 27 28 28 29 29 29 30 31 31 32 33 34 34 34 33 32 31 32 33 34 33
25 26 25 25 26 26 26 26 27 25 23 25 25 25 26 25 23 23 23 21 20 20 20 21 21 21 22 23 23 22 22 22 22 21 21 21 21 23 24 24 24 24 24 24 26 25 24 24 22 22 21 19 20 20 21 20 17 18 19 21 23 25 26 27 28 30 31 31 31 32 33 33 34 34 33 34 35 36 35 35 35 35 35 35 35
26 27 27 28 27 27 27 26 27 27 26 26 26 27 28 27 25 25 24 22 21 21 22 21 22 22 22 23 23 23 22 23 24 23 22 22 22 22 23 24 24 25 25 25 26 24 24 23 22 22 22 22 22 22 22 20 17 17 14 12 15 20 23 24 26 28 30 30 31 33 34 35 36 36 35 35 35 36 37 37 37 38 38 38 37
28 28 28 28 28 27 27 27 26 27 28 27 26 26 26 25 24 22 22 21 20 21 22 21 21 22 23 22 20 20 20 21 22 22 22 23 24 25 24 23 24 25 25 26 27 25 24 24 24 24 23 22 22 23 24 22 19 14 8 5 5 7 12 16 20 23 23 24 26 28 31 33 35 36 37 37 37 37 37 39 39 40 41 42 41
26 27 27 27 28 28 27 27 27 26 27 28 26 25 23 23 22 19 18 18 18 18 19 20 20 21 23 24 23 23 23 24 23 23 24 27 28 29 27 24 24 26 27 28 29 28 27 26 26 26 25 23 22 23 24 24 22 14 6 2 1 1 4 7 11 17 18 18 20 21 24 27 28 31 34 37 38 38 38 39 40 41 42 43 44
24 26 28 28 28 28 28 27 27 26 26 27 26 24 22 22 21 20 18 17 16 16 16 17 18 18 19 21 22 24 26 27 28 27 29 30 32 30 26 23 24 27 27 27 27 28 27 27 26 26 27 26 25 25 24 23 24 23 15 7 2 1 3 3 6 11 12 14 17 18 20 22 22 25 29 32 33 35 36 38 40 42 43 44 44
25 25 26 27 26 27 27 27 26 25 25 25 26 26 24 23 23 23 21 19 19 20 20 19 18 17 17 16 17 18 20 22 25 27 28 29 28 25 22 24 26 27 26 25 25 27 27 26 26 27 28 28 28 25 23 22 23 25 25 22 18 12 8 4 3 5 7 12 17 19 19 20 20 22 25 27 28 30 33 34 36 38 41 44 45
25 24 23 24 24 23 25 26 25 25 24 24 25 26 26 24 23 23 22 21 21 20 19 19 18 18 17 17 17 16 16 17 20 21 22 23 23 22 23 25 27 28 27 27 27 28 28 27 27 28 27 28 28 26 24 23 21 22 26 29 30 27 21 13 6 5 6 9 14 19 20 19 19 23 25 26 27 28 31 33 34 35 37 40 43
20 21 22 23 22 22 23 24 24 23 23 23 23 26 27 25 22 21 20 20 20 17 13 13 13 14 15 15 15 14 13 14 16 17 19 21 23 25 27 28 29 30 30 29 29 28 27 27 27 27 27 28 29 29 28 25 22 23 25 26 29 31 29 25 20 13 6 5 10 17 24 25 25 28 28 28 29 30 32 34 35 36 36 37 39
18 20 22 22 21 21 21 21 23 22 22 22 22 24 25 24 23 22 20 19 17 15 12 11 10 11 12 13 12 12 12 13 14 16 17 18 19 21 24 27 28 28 27 26 25 25 25 26 27 27 28 29 30 30 29 28 26 26 24 23 25 26 27 27 26 20 12 9 8 9 18 21 20 27 30 28 30 31 32 34 35 36 37 38 38
16 18 19 20 20 20 20 21 21 21 21 22 22 22 22 22 22 22 21 19 17 15 14 12 10 9 10 11 12 13 14 14 15 16 18 19 19 19 19 20 21 22 25 27 27 27 26 26 27 27 28 29 29 30 30 30 29 28 27 24 22 20 19 19 20 20 17 14 10 9 17 17 13 24 31 29 31 31 32 33 34 36 37 37 38
14 15 16 18 20 20 20 20 20 19 19 21 21 21 21 20 20 20 19 17 16 14 13 12 12 11 11 12 13 13 14 15 16 16 17 19 21 22 22 22 22 21 22 25 26 27 26 26 26 27 28 29 29 29 31 31 30 29 28 26 25 23 22 20 19 19 17 14 11 11 19 19 15 24 28 26 28 29 30 33 33 35 36 36 37
Wind_Direction
128 130 120 112 102 91 82 78 77 78 82 85 86 88 89 88 83 78 85 84 81 83 81 79 76 74 74 74 76 77 76 74 72 72 72 72 69 67 67 68 68 69 70 71 73 75 73 73 73 73 74 75 76 78 79 83 86 87 85 83 80 76 72 71 72 75 76 76 74 73 72 72 74 76 77 77 78 78 79 79 79 78 77 76 76
133 132 121 116 106 97 88 80 76 78 87 89 90 90 89 88 78 75 85 86 85 85 82 80 79 77 77 77 79 81 80 76 73 73 74 74 70 68 70 71 71 70 70 71 73 74 74 74 74 75 77 77 78 80 83 88 91 89 86 82 79 76 73 70 67 68 71 75 76 76 74 74 76 79 80 80 80 80 80 79 79 79 78 78 77
134 134 125 120 111 101 90 83 77 82 93 94 95 90 82 78 73 82 88 88 89 87 83 81 81 80 79 79 79 81 80 75 72 74 76 74 71 71 72 72 71 72 71 72 73 73 73 74 75 75 77 77 79 83 89 92 92 89 85 81 78 75 73 71 70 68 66 69 75 77 77 75 77 80 82 82 82 81 81 80 80 80 79 78 77
136 135 129 124 112 102 91 85 80 87 97 98 97 89 80 71 75 88 90 90 92 88 86 83 81 80 78 75 76 80 79 76 74 76 77 77 78 76 75 73 73 74 73 72 73 73 73 74 74 75 76 77 79 85 92 92 90 88 85 81 77 75 73 73 76 76 70 69 74 78 78 77 77 78 81 83 83 82 81 80 79 80 79 78 77
139 136 131 124 112 104 94 88 84 89 97 100 98 90 83 74 78 88 91 92 92 90 86 85 84 83 81 78 76 78 80 79 77 76 75 75 77 77 77 76 75 75 74 74 73 73 73 73 73 74 76 78 79 84 91 91 90 89 85 82 78 75 75 75 76 76 74 73 77 78 79 79 78 78 80 81 81 83 82 81 79 79 78 77 77
137 131 128 124 115 107 100 93 86 90 97 100 97 93 88 74 71 84 97 95 91 92 88 87 87 83 83 82 78 77 78 78 75 72 71 72 73 73 75 75 75 75 74 73 73 73 73 73 73 73 75 78 79 82 89 91 90 88 85 82 78 76 76 75 74 77 78 78 79 79 78 78 79 76 77 80 80 81 81 81 79 78 78 76 73
130 128 130 128 119 112 106 98 88 91 101 105 103 99 91 78 76 88 103 101 94 94 91 89 88 84 83 83 82 79 77 76 76 74 71 72 73 73 74 75 75 75 74 74 74 73 73 73 73 74 75 77 80 83 89 92 91 89 85 81 78 75 74 75 75 77 78 77 78 79 78 76 77 75 75 79 79 78 78 79 78 76 76 76 75
129 132 136 133 123 116 109 99 92 91 100 109 110 104 95 86 84 88 100 105 98 95 93 92 90 88 88 87 86 82 78 77 79 78 75 76 79 78 78 80 78 76 76 75 75 74 74 75 75 76 77 78 81 85 91 93 92 90 86 81 77 75 72 72 74 78 80 79 78 77 76 74 74 74 74 77 77 77 78 77 78 76 73 74 75
132 136 140 138 127 119 110 101 95 93 100 110 115 109 100 88 83 87 98 107 100 96 97 94 92 92 92 88 86 84 83 82 81 81 82 83 83 83 83 85 84 82 80 78 78 77 76 76 78 79 80 80 83 91 95 95 93 90 86 82 79 78 78 76 76 79 83 85 84 81 79 77 75 74 73 75 76 76 76 74 75 77 75 74 71
133 137 145 139 130 122 112 105 99 97 100 108 117 114 103 90 84 88 98 108 100 97 98 97 98 95 92 90 90 87 86 87 84 81 82 83 82 80 81 83 82 81 79 77 77 77 78 78 79 82 84 83 89 97 97 96 93 89 84 81 80 80 84 85 82 81 83 84 84 84 81 80 78 74 72 72 73 76 80 76 71 71 73 74 69
133 139 146 138 132 124 116 109 104 100 100 108 118 118 109 95 87 86 94 105 101 100 101 100 102 99 96 95 95 89 84 84 83 80 79 81 81 78 79 80 79 79 78 76 76 77 78 78 79 81 84 85 93 99 97 96 93 89 84 78 76 76 82 83 82 84 86 85 84 84 81 77 75 73 71 70 70 74 81 80 73 70 70 72 72
134 141 144 139 134 127 120 113 109 104 102 108 117 121 115 102 89 85 92 99 99 100 103 104 105 102 101 99 98 95 89 84 82 83 82 84 86 84 83 82 81 81 81 80 79 80 80 80 80 80 83 87 95 101 97 93 92 90 85 76 70 69 74 76 79 83 85 86 85 82 79 76 74 72 69 67 70 73 74 75 74 73 70 71 73
137 144 142 141 136 131 127 119 115 109 106 109 115 121 121 114 102 90 88 95 96 97 104 108 108 105 104 101 99 100 96 90 87 86 86 89 89 88 86 86 85 84 82 81 80 81 82 81 81 81 84 89 95 99 95 91 92 91 85 76 68 65 69 74 77 79 79 81 82 81 79 76 74 70 68 68 70 71 72 72 72 72 68 69 70
137 144 145 146 140 136 133 126 120 114 110 111 116 119 124 125 117 106 97 103 103 102 109 111 112 109 105 103 101 103 100 95 93 91 92 93 93 91 89 89 87 85 84 83 84 84 83 83 82 84 88 91 94 95 94 93 93 91 86 80 74 71 69 72 75 75 76 78 79 78 75 73 72 68 68 72 72 71 72 72 72 71 69 68 69
139 141 148 151 145 143 139 132 125 119 115 113 116 116 123 132 127 117 110 114 113 110 113 115 118 113 107 106 107 108 105 105 103 99 99 99 96 93 92 92 89 87 86 85 86 86 85 87 86 89 93 94 95 94 95 95 91 89 89 86 82 78 74 74 75 74 71 71 74 74 71 70 71 70 69 73 76 74 72 72 71 69 69 69 71
146 140 148 154 151 149 144 138 133 126 122 119 117 115 119 131 134 124 114 114 115 116 114 116 123 119 116 118 119 117 114 119 116 110 108 104 99 95 93 91 90 88 87 86 86 88 88 88 90 96 99 97 97 95 96 95 89 88 88 86 83 79 78 78 76 71 67 71 74 74 76 75 73 73 71 72 74 74 74 72 71 72 72 71 72
143 143 150 155 157 156 153 148 142 138 132 129 122 119 119 126 138 133 123 117 115 120 116 118 126 128 131 131 126 125 124 124 123 119 114 108 104 98 95 93 94 94 93 92 91 91 91 89 92 99 101 99 97 96 96 93 91 88 82 79 78 74 71 69 67 70 79 87 79 73 78 77 75 74 72 73 73 74 74 70 72 76 73 70 70
143 146 154 155 159 160 164 159 152 151 143 138 131 125 122 124 136 140 132 124 120 119 117 118 123 129 139 139 132 130 131 127 124 124 120 114 111 108 105 104 105 104 100 96 95 95 93 93 94 100 101 100 99 97 95 91 91 87 79 76 75 73 68 70 77 83 94 92 78 79 85 85 80 78 75 76 75 74 74 73 74 74 71 73 74
153 151 156 158 164 163 170 170 162 162 154 149 142 133 128 126 133 140 140 129 125 118 112 113 114 121 133 145 147 139 136 127 121 127 128 125 122 122 115 110 111 108 104 98 97 97 96 96 95 99 100 99 98 95 92 88 85 82 79 75 72 74 71 78 87 90 89 74 74 81 83 86 84 80 79 78 78 79 82 81 77 74 76 79 76
161 160 164 165 170 172 176 175 169 168 164 161 154 147 140 135 136 140 145 137 131 123 112 110 111 114 115 141 161 157 147 132 124 130 135 138 139 136 123 115 121 114 105 102 102 101 98 98 96 96 96 96 94 89 87 83 81 80 79 74 69 71 72 74 74 74 68 59 83 92 88 90 88 85 84 82 81 83 86 80 76 79 82 83 82
168 172 176 174 175 178 179 175 173 172 167 173 172 162 155 150 149 145 147 149 143 138 130 121 119 113 106 124 151 167 163 152 141 142 147 155 161 157 144 134 129 120 111 110 109 105 101 100 97 93 89 87 90 93 88 86 85 83 81 74 68 70 73 65 52 71 81 83 101 107 103 99 94 90 86 87 85 80 84 83 83 85 86 92 90
175 181 184 183 181 180 184 175 175 177 172 182 187 172 171 166 163 161 154 156 154 153 155 151 145 126 116 109 118 138 138 153 177 159 167 174 178 177 170 167 149 149 131 119 117 113 107 104 100 88 80 73 71 73 77 88 89 90 84 70 69 78 82 65 55 90 107 102 112 116 95 88 98 98 92 96 93 88 95 89 85 92 91 95 93
178 185 187 189 187 183 187 179 178 182 179 185 189 180 182 180 177 179 172 167 162 163 166 162 160 136 126 111 111 120 125 173 210 182 179 180 184 190 181 189 183 183 150 121 120 111 107 107 101 90 82 71 54 42 47 68 80 93 84 66 69 84 94 86 82 105 105 96 123 124 90 91 119 109 97 104 100 103 107 84 81 102 99 93 94
179 185 187 189 190 187 188 184 183 186 185 187 188 184 181 185 188 187 188 183 172 162 162 161 164 160 129 116 138 180 180 201 216 201 193 189 187 197 197 208 223 215 220 150 131 115 111 111 102 99 94 80 58 13 16 44 66 81 74 61 60 73 102 113 114 117 88 103 141 135 115 127 145 103 96 108 108 113 106 86 93 113 106 97 97
181 184 186 188 191 191 190 186 187 188 190 187 188 185 170 180 189 186 188 183 180 161 166 179 180 219 138 122 194 199 194 219 222 211 205 211 202 205 215 224 242 216 204 172 147 143 131 118 110 105 91 86 131 168 0 18 34 50 59 55 53 88 127 136 145 170 186 170 172 162 155 158 130 102 110 120 122 118 93 99 111 111 110 109 105
183 185 186 188 191 193 192 188 190 191 190 187 190 190 170 178 186 185 183 179 194 169 177 193 184 222 175 144 226 209 194 229 228 211 199 223 225 203 213 203 239 215 159 162 171 168 156 141 129 106 89 142 171 172 172 174 21 26 44 225 178 135 197 244 196 195 202 214 224 188 185 159 123 138 146 138 136 129 80 111 115 105 117 123 119
184 186 187 190 191 194 194 190 192 194 192 188 191 196 181 182 188 189 187 183 198 183 184 201 188 216 195 171 227 210 189 226 232 196 179 218 232 199 202 172 224 239 153 189 243 212 185 179 155 126 162 205 204 196 187 178 178 188 218 241 202 182 222 249 237 205 204 221 220 197 216 209 167 176 171 158 156 155 124 125 126 120 129 136 136
186 187 187 191 192 193 195 192 194 197 196 190 189 199 192 187 191 194 193 188 198 193 191 204 196 216 214 190 215 205 187 214 228 190 175 208 220 197 201 196 220 237 180 197 244 239 200 189 188 198 207 217 229 231 216 198 195 196 205 232 210 195 208 237 240 217 214 224 218 212 238 218 188 189 183 191 193 180 177 176 176 156 145 162 160
186 188 187 191 192 192 195 194 195 198 198 193 190 198 199 193 197 200 199 196 199 196 195 203 201 216 224 201 203 201 192 209 219 207 194 203 210 199 200 212 221 226 210 208 238 245 212 197 208 220 223 231 241 247 244 227 215 206 212 226 212 202 207 218 230 231 229 230 230 224 224 204 190 204 220 216 212 213 215 201 201 201 202 210 189
183 188 187 191 194 193 196 196 196 197 197 196 193 198 201 198 202 206 204 204 206 199 194 200 206 217 222 211 206 199 193 209 218 214 210 206 209 209 202 213 222 221 223 219 232 247 224 210 222 228 227 230 241 250 250 246 233 214 224 235 219 211 215 217 223 236 233 230 241 233 218 207 199 218 237 219 221 226 211 209 231 213 205 224 207
183 186 188 192 194 195 197 198 199 198 196 198 197 198 200 200 204 210 207 207 211 206 201 203 208 215 219 222 220 205 192 204 223 219 216 214 214 217 211 212 218 221 228 226 230 242 230 221 229 228 227 232 239 247 249 249 242 225 223 234 232 222 218 220 224 230 230 228 238 238 228 220 216 224 228 218 219 219 223 239 239 214 216 241 222
188 188 187 190 195 197 199 199 200 200 198 198 199 198 200 201 203 209 212 213 214 211 211 211 211 212 213 222 230 219 198 194 217 227 220 220 223 226 221 216 218 224 231 231 232 238 227 220 229 227 226 233 233 240 249 245 239 242 238 236 236 228 222 227 230 230 233 233 233 237 237 232 230 230 225 220 213 214 231 241 230 220 225 240 229
195 194 190 190 195 198 199 200 201 203 202 200 201 200 198 201 203 206 214 218 217 213 214 215 214 213 211 218 227 224 212 201 206 221 224 225 230 234 229 222 222 228 234 235 236 239 228 219 228 231 226 228 227 231 247 248 237 242 250 248 242 233 226 228 231 232 235 238 236 238 243 242 239 235 229 226 221 220 225 227 228 224 221 228 227
198 197 193 192 194 196 198 199 201 206 207 205 205 206 201 202 205 205 211 220 220 216 216 215 214 219 219 220 223 221 217 211 206 217 228 225 226 237 239 232 229 229 233 237 239 242 236 226 232 238 234 232 233 232 241 251 247 241 243 247 249 245 236 232 232 231 231 232 232 235 241 243 241 238 236 235 232 226 221 224 230 227 226 230 235
197 197 196 195 195 197 199 199 201 205 209 208 207 211 209 206 208 206 208 219 225 223 223 219 216 223 227 225 228 227 222 216 211 217 231 230 225 231 241 244 241 235 235 242 245 246 244 238 240 244 241 238 240 239 240 248 253 248 244 247 253 251 243 239 239 238 237 235 233 235 238 238 237 239 239 238 237 232 227 228 229 227 228 232 239
196 196 197 196 196 197 200 199 201 204 208 209 204 209 214 212 213 211 210 216 224 226 226 224 221 223 227 229 232 234 233 226 215 214 226 234 230 227 231 237 241 241 243 247 249 250 249 245 246 248 247 243 243 242 240 246 251 250 247 249 251 250 246 244 245 247 247 245 244 243 242 239 237 238 240 240 238 235 234 232 231 229 228 232 237
196 197 196 194 194 196 199 199 201 202 205 208 205 207 213 216 217 217 216 219 224 226 226 228 228 226 228 234 237 239 241 239 231 227 229 233 231 229 230 232 238 247 252 252 251 253 251 248 248 249 248 243 244 246 241 243 249 247 244 246 249 251 251 250 251 253 252 253 253 251 249 245 241 239 239 240 239 238 239 237 235 234 233 234 233
196 197 197 195 194 196 199 199 201 202 202 206 208 207 210 215 218 220 221 222 224 226 228 231 235 235 233 233 237 242 245 245 245 243 239 236 233 235 239 240 243 249 252 251 253 253 251 250 250 249 247 243 241 246 246 244 246 244 242 245 249 252 255 256 257 258 258 259 259 257 255 252 247 244 241 241 240 240 243 242 239 237 235 237 233
196 196 196 197 195 196 200 198 199 202 201 203 207 205 206 211 215 221 225 225 226 229 230 232 235 239 239 236 236 240 243 244 242 240 242 244 240 239 242 242 242 245 247 249 252 252 250 249 249 248 248 247 242 239 243 244 241 241 244 249 254 258 260 262 263 262 262 263 263 261 259 258 255 250 247 246 245 244 245 245 243 240 238 238 236
195 194 194 195 194 194 198 198 197 199 199 198 202 204 205 208 212 216 220 222 225 227 230 232 233 236 239 240 238 238 240 241 239 238 245 251 247 243 243 244 243 242 244 249 251 251 250 248 247 246 245 246 244 238 239 240 239 242 248 254 258 262 265 267 267 266 265 264 264 264 262 261 259 256 253 251 249 249 248 247 246 244 241 241 239
193 194 195 194 194 193 194 198 198 197 197 196 198 200 202 204 208 212 215 220 223 226 229 231 231 232 236 241 241 239 238 238 239 242 248 251 248 244 244 245 243 240 243 251 253 252 252 250 247 245 241 242 244 242 242 241 241 245 251 259 263 268 272 274 273 271 270 268 266 265 264 262 260 259 257 255 253 252 252 250 249 247 244 243 242
192 195 197 197 197 196 195 198 199 197 197 198 199 201 204 205 208 213 216 218 221 224 228 230 231 230 233 240 243 240 237 236 238 242 246 246 246 245 243 242 240 240 245 252 253 250 250 249 246 243 241 242 245 247 247 242 240 246 254 271 280 280 279 278 277 276 273 271 269 266 265 263 262 261 259 258 257 255 255 254 253 252 249 246 245
195 196 199 200 199 198 199 199 198 199 200 200 202 203 206 207 209 212 214 216 220 226 231 234 235 233 230 233 238 239 239 238 240 243 245 244 246 248 245 243 241 241 243 247 250 249 247 246 245 245 243 241 241 245 249 246 242 245 254 269 284 295 287 275 273 276 276 274 271 269 267 265 266 265 261 260 260 259 259 257 256 256 254 251 247
196 198 199 200 201 200 200 200 200 201 202 202 203 203 205 206 207 208 208 211 215 220 226 230 234 236 232 231 236 242 246 247 248 250 250 247 245 244 244 246 247 245 244 246 248 249 249 247 245 245 242 238 238 243 248 248 243 237 229 232 203 350 279 271 277 282 281 275 269 268 269 268 269 268 264 262 263 264 263 262 259 258 257 256 252
196 198 200 201 201 202 202 201 202 203 204 204 203 202 202 202 202 201 201 207 213 216 219 220 224 229 231 233 238 244 247 250 252 252 252 248 242 241 245 251 252 248 247 248 251 253 252 248 245 244 243 241 243 247 249 249 248 244 233 225 239 257 243 275 305 292 279 273 273 271 268 267 269 269 267 266 266 266 267 267 264 261 259 258 256
200 201 202 202 202 203 203 202 202 203 205 205 204 201 200 198 197 199 202 207 215 222 225 226 226 229 232 233 237 243 246 249 251 251 249 244 239 243 255 261 255 247 245 248 251 253 253 249 247 246 248 250 249 246 246 250 255 253 244 238 243 250 255 282 321 298 280 277 278 276 270 265 265 265 264 265 266 267 269 270 270 267 263 260 258
202 200 200 200 200 201 202 201 201 202 203 203 203 201 200 198 197 199 203 207 214 222 230 236 239 242 242 241 243 247 251 252 253 253 252 250 249 257 267 265 254 247 246 249 250 252 254 255 255 252 255 258 251 242 244 248 250 253 251 246 245 248 255 262 263 278 292 278 270 273 274 271 268 267 265 265 267 269 271 272 273 272 269 266 263
201 199 197 196 196 197 197 198 198 199 200 201 202 202 201 200 198 201 205 210 217 220 226 233 236 241 241 240 242 245 249 249 250 253 256 258 260 263 264 258 250 247 248 250 251 252 256 259 259 256 258 260 251 243 245 245 243 247 252 251 250 250 252 255 256 259 274 283 275 273 273 273 272 272 270 268 269 269 271 272 273 274 274 273 270
198 198 197 194 193 193 193 194 195 197 198 198 200 202 203 203 203 206 208 212 215 216 218 222 228 236 237 235 234 235 240 243 244 249 253 254 257 261 261 254 250 250 252 255 259 262 266 265 263 260 261 260 253 247 246 245 244 245 248 249 251 253 254 256 257 254 251 260 271 272 272 273 271 272 273 271 271 272 271 272 273 274 274 274 274
192 195 196 195 194 194 193 193 194 196 197 197 198 199 200 203 207 209 211 212 214 217 219 220 224 231 231 230 230 231 237 245 249 252 254 254 256 261 261 254 251 254 259 262 265 270 272 270 267 265 263 260 256 251 249 250 249 248 248 247 247 249 251 254 253 247 244 248 255 265 269 269 268 274 277 275 276 277 276 273 272 271 271 272 275
190 192 194 195 193 191 190 189 189 192 193 193 194 195 196 198 201 204 206 209 210 214 218 219 220 221 222 224 230 233 235 242 249 253 255 254 254 256 256 253 250 252 259 261 262 263 262 263 265 264 260 257 257 256 253 253 251 249 248 246 246 247 247 251 250 244 238 241 251 264 268 268 267 272 277 279 279 280 280 277 272 271 271 272 275